Time,TemperatureF,DewpointF,PressureIn,WindDirection,WindDirectionDegrees,WindSpeedMPH,WindSpeedGustMPH,Humidity,HourlyPrecipIn,Conditions,Clouds,dailyrainin,SoftwareType,DateUTC
2013-05-22 00:42:00,73.0,69.0,29.77,West,270,3.0,3.0,87,0.00,,,0.00,TxWx,2013-05-22 04:42:00,
2013-05-22 00:50:00,72.0,68.0,29.78,NNE,22,1.0,1.0,87,0.00,,,0.00,TxWx,2013-05-22 04:50:00,
2013-05-22 00:55:00,72.0,68.0,29.79,East,90,2.0,2.0,87,0.00,,,0.00,TxWx,2013-05-22 04:55:00,
2013-05-22 01:00:00,73.0,69.0,29.78,ENE,67,3.0,4.0,88,0.00,,,0.00,TxWx,2013-05-22 05:00:00,
2013-05-22 01:06:00,73.0,69.0,29.78,SE,135,2.0,3.0,88,0.00,,,0.00,TxWx,2013-05-22 05:06:00,
2013-05-22 01:11:00,73.0,69.0,29.78,East,90,3.0,3.0,88,0.00,,,0.00,TxWx,2013-05-22 05:11:00,
2013-05-22 01:16:00,73.0,69.0,29.78,ENE,67,2.0,4.0,88,0.00,,,0.00,TxWx,2013-05-22 05:16:00,
2013-05-22 01:21:00,73.0,69.0,29.79,ENE,67,4.0,5.0,88,0.00,,,0.00,TxWx,2013-05-22 05:21:00,
2013-05-22 01:27:00,73.0,69.0,29.81,ENE,67,9.0,12.0,87,0.00,,,0.00,TxWx,2013-05-22 05:27:00,
2013-05-22 01:32:00,73.0,69.0,29.83,ESE,112,8.0,13.0,87,0.00,,,0.00,TxWx,2013-05-22 05:32:00,
2013-05-22 01:37:00,73.0,69.0,29.82,SE,135,9.0,11.0,86,0.00,,,0.00,TxWx,2013-05-22 05:37:00,
2013-05-22 01:42:00,73.0,68.0,29.82,ESE,112,8.0,8.0,85,0.00,,,0.00,TxWx,2013-05-22 05:42:00,
2013-05-22 01:47:00,74.0,68.0,29.82,SE,135,6.0,9.0,83,0.00,,,0.00,TxWx,2013-05-22 05:47:00,
2013-05-22 01:52:00,73.0,67.0,29.82,SE,135,9.0,11.0,81,0.00,,,0.00,TxWx,2013-05-22 05:52:00,
2013-05-22 01:57:00,72.0,66.0,29.81,SE,135,6.0,8.0,82,0.00,,,0.01,TxWx,2013-05-22 05:57:00,
2013-05-22 02:02:00,71.0,66.0,29.81,SE,135,8.0,13.0,83,0.60,,,0.05,TxWx,2013-05-22 06:02:00,
2013-05-22 02:07:00,71.0,66.0,29.81,SE,135,1.0,1.0,85,0.60,,,0.11,TxWx,2013-05-22 06:07:00,
2013-05-22 02:12:00,70.0,65.0,29.81,East,90,1.0,3.0,86,0.60,,,0.23,TxWx,2013-05-22 06:12:00,
2013-05-22 02:17:00,70.0,66.0,29.80,South,180,3.0,3.0,86,0.60,,,0.24,TxWx,2013-05-22 06:17:00,
2013-05-22 02:22:00,70.0,66.0,29.80,SSW,202,4.0,5.0,87,0.60,,,0.27,TxWx,2013-05-22 06:22:00,
2013-05-22 02:27:00,70.0,66.0,29.81,SSW,202,5.0,5.0,87,0.60,,,0.31,TxWx,2013-05-22 06:27:00,
2013-05-22 02:33:00,69.0,65.0,29.82,SW,225,3.0,3.0,88,0.60,,,0.33,TxWx,2013-05-22 06:33:00,
2013-05-22 02:38:00,69.0,65.0,29.81,SSE,157,2.0,3.0,89,0.60,,,0.39,TxWx,2013-05-22 06:38:00,
2013-05-22 02:43:00,69.0,65.0,29.81,SSW,202,3.0,3.0,89,0.60,,,0.43,TxWx,2013-05-22 06:43:00,
2013-05-22 02:48:00,69.0,66.0,29.82,SW,225,3.0,3.0,89,0.60,,,0.44,TxWx,2013-05-22 06:48:00,
2013-05-22 02:53:00,69.0,66.0,29.82,South,180,3.0,3.0,89,0.60,,,0.46,TxWx,2013-05-22 06:53:00,
2013-05-22 02:58:00,69.0,66.0,29.81,SW,225,3.0,3.0,90,0.60,,,0.50,TxWx,2013-05-22 06:58:00,
2013-05-22 03:03:00,69.0,66.0,29.81,SW,225,3.0,3.0,90,0.60,,,0.54,TxWx,2013-05-22 07:03:00,
2013-05-22 03:08:00,69.0,66.0,29.82,West,270,1.0,1.0,90,0.60,,,0.54,TxWx,2013-05-22 07:08:00,
2013-05-22 03:13:00,69.0,66.0,29.81,South,180,1.0,1.0,90,0.60,,,0.55,TxWx,2013-05-22 07:13:00,
2013-05-22 03:18:00,69.0,66.0,29.81,West,270,3.0,3.0,91,0.60,,,0.55,TxWx,2013-05-22 07:18:00,
2013-05-22 03:23:00,69.0,66.0,29.81,West,270,2.0,3.0,91,0.60,,,0.55,TxWx,2013-05-22 07:23:00,
2013-05-22 03:28:00,69.0,66.0,29.80,WNW,292,3.0,4.0,91,0.60,,,0.55,TxWx,2013-05-22 07:28:00,
2013-05-22 03:34:00,69.0,66.0,29.80,SSE,157,1.0,1.0,91,0.00,,,0.55,TxWx,2013-05-22 07:34:00,
2013-05-22 03:39:00,69.0,66.0,29.80,West,270,2.0,3.0,91,0.00,,,0.55,TxWx,2013-05-22 07:39:00,
2013-05-22 03:44:00,69.0,66.0,29.79,NE,45,2.0,2.0,91,0.00,,,0.55,TxWx,2013-05-22 07:44:00,
2013-05-22 03:49:00,69.0,66.0,29.79,West,270,2.0,3.0,91,0.00,,,0.55,TxWx,2013-05-22 07:49:00,
2013-05-22 03:54:00,69.0,66.0,29.79,NW,315,2.0,2.0,91,0.00,,,0.55,TxWx,2013-05-22 07:54:00,
2013-05-22 03:59:00,69.0,66.0,29.80,NW,315,1.0,2.0,92,0.00,,,0.55,TxWx,2013-05-22 07:59:00,
2013-05-22 04:04:00,69.0,66.0,29.80,ENE,67,1.0,2.0,92,0.00,,,0.55,TxWx,2013-05-22 08:04:00,
2013-05-22 04:10:00,69.0,66.0,29.81,NNW,337,1.0,3.0,92,0.00,,,0.55,TxWx,2013-05-22 08:10:00,
2013-05-22 04:15:00,68.0,65.0,29.81,NNE,22,1.0,2.0,92,0.00,,,0.55,TxWx,2013-05-22 08:15:00,
2013-05-22 04:20:00,68.0,65.0,29.81,NNW,337,1.0,1.0,92,0.00,,,0.55,TxWx,2013-05-22 08:20:00,
2013-05-22 04:25:00,68.0,65.0,29.80,NNE,22,1.0,2.0,92,0.00,,,0.55,TxWx,2013-05-22 08:25:00,
2013-05-22 04:30:00,68.0,66.0,29.81,ENE,67,3.0,3.0,92,0.00,,,0.55,TxWx,2013-05-22 08:30:00,
2013-05-22 04:35:00,68.0,66.0,29.82,NNW,337,1.0,2.0,92,0.00,,,0.55,TxWx,2013-05-22 08:35:00,
2013-05-22 04:40:00,68.0,66.0,29.82,WNW,292,1.0,2.0,92,0.00,,,0.55,TxWx,2013-05-22 08:40:00,
2013-05-22 04:46:00,68.0,66.0,29.82,NNE,22,2.0,2.0,92,0.00,,,0.55,TxWx,2013-05-22 08:46:00,
2013-05-22 04:51:00,68.0,66.0,29.81,NNW,337,1.0,3.0,93,0.00,,,0.56,TxWx,2013-05-22 08:51:00,
2013-05-22 04:56:00,68.0,66.0,29.82,North,0,2.0,3.0,93,0.00,,,0.56,TxWx,2013-05-22 08:56:00,
2013-05-22 05:02:00,69.0,67.0,29.81,NW,315,1.0,1.0,93,0.60,,,0.56,TxWx,2013-05-22 09:02:00,
2013-05-22 05:07:00,69.0,67.0,29.82,NE,45,1.0,1.0,93,0.60,,,0.56,TxWx,2013-05-22 09:07:00,
2013-05-22 05:12:00,69.0,67.0,29.82,ESE,112,1.0,2.0,93,0.00,,,0.56,TxWx,2013-05-22 09:12:00,
2013-05-22 05:17:00,69.0,67.0,29.82,ESE,112,1.0,1.0,93,0.00,,,0.56,TxWx,2013-05-22 09:17:00,
2013-05-22 05:22:00,69.0,67.0,29.83,SSW,202,1.0,1.0,93,0.00,,,0.56,TxWx,2013-05-22 09:22:00,
2013-05-22 05:27:00,69.0,67.0,29.83,SW,225,1.0,1.0,93,0.00,,,0.56,TxWx,2013-05-22 09:27:00,
2013-05-22 05:32:00,69.0,67.0,29.82,WNW,292,1.0,1.0,93,0.00,,,0.56,TxWx,2013-05-22 09:32:00,
2013-05-22 05:37:00,69.0,67.0,29.83,NW,315,1.0,1.0,93,0.00,,,0.56,TxWx,2013-05-22 09:37:00,
2013-05-22 05:42:00,69.0,67.0,29.83,NW,315,1.0,1.0,93,0.00,,,0.56,TxWx,2013-05-22 09:42:00,
2013-05-22 05:47:00,69.0,67.0,29.83,NNW,337,2.0,2.0,93,0.00,,,0.56,TxWx,2013-05-22 09:47:00,
2013-05-22 05:52:00,68.0,66.0,29.83,NW,315,3.0,3.0,93,0.00,,,0.56,TxWx,2013-05-22 09:52:00,
2013-05-22 05:58:00,68.0,66.0,29.83,WNW,292,1.0,1.0,93,0.00,,,0.56,TxWx,2013-05-22 09:58:00,
2013-05-22 06:03:00,68.0,66.0,29.83,NW,315,3.0,3.0,93,0.00,,,0.56,TxWx,2013-05-22 10:03:00,
2013-05-22 06:08:00,67.0,65.0,29.83,WNW,292,2.0,3.0,93,0.00,,,0.56,TxWx,2013-05-22 10:08:00,
2013-05-22 06:13:00,67.0,65.0,29.83,NW,315,1.0,3.0,93,0.00,,,0.56,TxWx,2013-05-22 10:13:00,
2013-05-22 06:18:00,67.0,65.0,29.83,NW,315,2.0,2.0,93,0.00,,,0.56,TxWx,2013-05-22 10:18:00,
2013-05-22 06:23:00,67.0,65.0,29.83,North,0,3.0,5.0,93,0.00,,,0.56,TxWx,2013-05-22 10:23:00,
2013-05-22 06:29:00,67.0,65.0,29.83,NNW,337,2.0,3.0,93,0.00,,,0.56,TxWx,2013-05-22 10:29:00,
2013-05-22 06:34:00,67.0,65.0,29.83,NNW,337,3.0,4.0,94,0.00,,,0.56,TxWx,2013-05-22 10:34:00,
2013-05-22 06:39:00,68.0,66.0,29.83,NW,315,3.0,3.0,94,0.00,,,0.56,TxWx,2013-05-22 10:39:00,
2013-05-22 06:44:00,68.0,66.0,29.83,NW,315,3.0,4.0,94,0.00,,,0.56,TxWx,2013-05-22 10:44:00,
2013-05-22 06:50:00,68.0,66.0,29.83,WNW,292,3.0,3.0,94,0.00,,,0.56,TxWx,2013-05-22 10:50:00,
2013-05-22 06:55:00,68.0,66.0,29.83,North,0,4.0,4.0,94,0.00,,,0.56,TxWx,2013-05-22 10:55:00,
2013-05-22 07:00:00,68.0,66.0,29.83,NNW,337,2.0,2.0,94,0.00,,,0.56,TxWx,2013-05-22 11:00:00,
2013-05-22 07:05:00,68.0,66.0,29.83,NW,315,2.0,2.0,94,0.00,,,0.56,TxWx,2013-05-22 11:05:00,
2013-05-22 07:10:00,68.0,66.0,29.83,WNW,292,4.0,5.0,94,0.00,,,0.56,TxWx,2013-05-22 11:10:00,
2013-05-22 07:15:00,68.0,66.0,29.83,NNW,337,3.0,4.0,94,0.00,,,0.56,TxWx,2013-05-22 11:15:00,
2013-05-22 07:20:00,68.0,66.0,29.83,NNW,337,3.0,3.0,94,0.00,,,0.56,TxWx,2013-05-22 11:20:00,
2013-05-22 07:26:00,68.0,66.0,29.83,NW,315,3.0,6.0,94,0.00,,,0.56,TxWx,2013-05-22 11:26:00,
2013-05-22 07:31:00,68.0,66.0,29.84,North,0,3.0,4.0,94,0.00,,,0.56,TxWx,2013-05-22 11:31:00,
2013-05-22 07:36:00,68.0,66.0,29.84,NNW,337,3.0,3.0,94,0.00,,,0.56,TxWx,2013-05-22 11:36:00,
2013-05-22 07:41:00,68.0,66.0,29.84,NNE,22,4.0,5.0,94,0.00,,,0.56,TxWx,2013-05-22 11:41:00,
2013-05-22 07:46:00,68.0,66.0,29.84,WNW,292,3.0,3.0,94,0.00,,,0.56,TxWx,2013-05-22 11:46:00,
2013-05-22 07:52:00,68.0,66.0,29.84,NW,315,3.0,4.0,94,0.00,,,0.56,TxWx,2013-05-22 11:52:00,
2013-05-22 07:57:00,69.0,67.0,29.84,West,270,3.0,5.0,94,0.00,,,0.56,TxWx,2013-05-22 11:57:00,
2013-05-22 08:02:00,69.0,67.0,29.84,NW,315,4.0,4.0,94,0.00,,,0.56,TxWx,2013-05-22 12:02:00,
2013-05-22 08:07:00,68.0,66.0,29.84,NW,315,4.0,4.0,94,0.00,,,0.56,TxWx,2013-05-22 12:07:00,
2013-05-22 08:12:00,69.0,67.0,29.84,NW,315,4.0,4.0,94,0.00,,,0.56,TxWx,2013-05-22 12:12:00,
2013-05-22 08:18:00,69.0,67.0,29.84,NW,315,3.0,4.0,94,0.00,,,0.56,TxWx,2013-05-22 12:18:00,
2013-05-22 08:23:00,69.0,67.0,29.83,NW,315,3.0,4.0,94,0.00,,,0.56,TxWx,2013-05-22 12:23:00,
2013-05-22 08:28:00,69.0,67.0,29.83,WSW,247,2.0,3.0,94,0.00,,,0.56,TxWx,2013-05-22 12:28:00,
2013-05-22 08:33:00,69.0,67.0,29.84,NW,315,3.0,4.0,94,0.00,,,0.56,TxWx,2013-05-22 12:33:00,
2013-05-22 08:38:00,70.0,68.0,29.83,NNW,337,3.0,3.0,94,0.00,,,0.56,TxWx,2013-05-22 12:38:00,
2013-05-22 08:44:00,70.0,68.0,29.84,NNW,337,3.0,3.0,94,0.00,,,0.56,TxWx,2013-05-22 12:44:00,
2013-05-22 08:49:00,70.0,68.0,29.84,WNW,292,7.0,9.0,94,0.00,,,0.56,TxWx,2013-05-22 12:49:00,
2013-05-22 08:54:00,70.0,68.0,29.84,NW,315,3.0,4.0,94,0.00,,,0.56,TxWx,2013-05-22 12:54:00,
2013-05-22 09:00:00,70.0,68.0,29.84,NW,315,4.0,4.0,94,0.00,,,0.56,TxWx,2013-05-22 13:00:00,
2013-05-22 09:05:00,70.0,68.0,29.84,NW,315,3.0,3.0,94,0.00,,,0.56,TxWx,2013-05-22 13:05:00,
2013-05-22 09:10:00,70.0,68.0,29.84,NW,315,3.0,3.0,94,0.00,,,0.56,TxWx,2013-05-22 13:10:00,
2013-05-22 09:15:00,70.0,68.0,29.84,NNW,337,5.0,5.0,94,0.00,,,0.56,TxWx,2013-05-22 13:15:00,
2013-05-22 09:20:00,70.0,68.0,29.84,WNW,292,4.0,5.0,94,0.00,,,0.56,TxWx,2013-05-22 13:20:00,
2013-05-22 09:25:00,71.0,69.0,29.84,NW,315,3.0,5.0,94,0.00,,,0.56,TxWx,2013-05-22 13:25:00,
2013-05-22 09:31:00,71.0,69.0,29.84,WNW,292,4.0,5.0,94,0.00,,,0.56,TxWx,2013-05-22 13:31:00,
2013-05-22 09:36:00,71.0,69.0,29.84,WNW,292,3.0,6.0,94,0.00,,,0.56,TxWx,2013-05-22 13:36:00,
2013-05-22 09:41:00,71.0,69.0,29.84,NNW,337,6.0,6.0,93,0.00,,,0.56,TxWx,2013-05-22 13:41:00,
2013-05-22 09:47:00,71.0,69.0,29.84,NNW,337,6.0,9.0,93,0.00,,,0.56,TxWx,2013-05-22 13:47:00,
2013-05-22 09:52:00,71.0,69.0,29.84,NW,315,8.0,10.0,93,0.00,,,0.56,TxWx,2013-05-22 13:52:00,
2013-05-22 09:57:00,71.0,69.0,29.84,NW,315,4.0,6.0,93,0.00,,,0.56,TxWx,2013-05-22 13:57:00,
2013-05-22 10:02:00,71.0,69.0,29.83,WNW,292,3.0,6.0,92,0.00,,,0.56,TxWx,2013-05-22 14:02:00,
2013-05-22 10:07:00,72.0,69.0,29.84,NNW,337,7.0,8.0,92,0.00,,,0.56,TxWx,2013-05-22 14:07:00,
2013-05-22 10:12:00,72.0,69.0,29.84,WSW,247,5.0,8.0,91,0.00,,,0.56,TxWx,2013-05-22 14:12:00,
2013-05-22 10:18:00,72.0,69.0,29.83,NW,315,3.0,5.0,91,0.00,,,0.56,TxWx,2013-05-22 14:18:00,
2013-05-22 10:23:00,72.0,69.0,29.83,NNW,337,9.0,9.0,90,0.00,,,0.56,TxWx,2013-05-22 14:23:00,
2013-05-22 10:28:00,72.0,69.0,29.83,NNW,337,5.0,6.0,90,0.00,,,0.56,TxWx,2013-05-22 14:28:00,
2013-05-22 10:34:00,72.0,69.0,29.83,North,0,6.0,6.0,89,0.00,,,0.56,TxWx,2013-05-22 14:34:00,
2013-05-22 10:39:00,72.0,68.0,29.84,NW,315,5.0,5.0,89,0.00,,,0.56,TxWx,2013-05-22 14:39:00,
2013-05-22 10:44:00,73.0,69.0,29.84,NNW,337,3.0,5.0,89,0.00,,,0.56,TxWx,2013-05-22 14:44:00,
2013-05-22 10:49:00,73.0,69.0,29.83,NNW,337,3.0,3.0,88,0.00,,,0.56,TxWx,2013-05-22 14:49:00,
2013-05-22 10:54:00,74.0,70.0,29.83,WNW,292,5.0,7.0,88,0.00,,,0.56,TxWx,2013-05-22 14:54:00,
2013-05-22 11:00:00,74.0,70.0,29.83,NW,315,5.0,8.0,88,0.00,,,0.56,TxWx,2013-05-22 15:00:00,
2013-05-22 11:05:00,74.0,70.0,29.83,North,0,5.0,5.0,87,0.00,,,0.56,TxWx,2013-05-22 15:05:00,
2013-05-22 11:10:00,74.0,70.0,29.83,NNW,337,6.0,9.0,86,0.00,,,0.56,TxWx,2013-05-22 15:10:00,
2013-05-22 11:15:00,75.0,70.0,29.83,North,0,4.0,4.0,86,0.00,,,0.56,TxWx,2013-05-22 15:15:00,
2013-05-22 11:20:00,75.0,70.0,29.83,NW,315,8.0,13.0,85,0.00,,,0.56,TxWx,2013-05-22 15:20:00,
2013-05-22 11:26:00,75.0,70.0,29.83,NW,315,5.0,5.0,84,0.00,,,0.56,TxWx,2013-05-22 15:26:00,
2013-05-22 11:31:00,75.0,70.0,29.83,North,0,7.0,8.0,84,0.00,,,0.56,TxWx,2013-05-22 15:31:00,
2013-05-22 11:36:00,76.0,70.0,29.83,North,0,7.0,7.0,83,0.00,,,0.56,TxWx,2013-05-22 15:36:00,
2013-05-22 11:41:00,76.0,70.0,29.83,NW,315,3.0,6.0,83,0.00,,,0.56,TxWx,2013-05-22 15:41:00,
2013-05-22 11:47:00,76.0,70.0,29.82,WNW,292,3.0,4.0,82,0.00,,,0.56,TxWx,2013-05-22 15:47:00,
2013-05-22 11:52:00,77.0,71.0,29.82,North,0,5.0,8.0,81,0.00,,,0.56,TxWx,2013-05-22 15:52:00,
2013-05-22 11:58:00,77.0,71.0,29.82,NW,315,5.0,5.0,81,0.00,,,0.56,TxWx,2013-05-22 15:58:00,
2013-05-22 12:02:00,77.0,70.0,29.82,North,0,6.0,6.0,80,0.00,,,0.56,TxWx,2013-05-22 16:02:00,
2013-05-22 12:08:00,77.0,70.0,29.82,NNW,337,4.0,5.0,80,0.00,,,0.56,TxWx,2013-05-22 16:08:00,
2013-05-22 12:13:00,77.0,70.0,29.82,NNW,337,7.0,8.0,80,0.00,,,0.56,TxWx,2013-05-22 16:13:00,
2013-05-22 12:18:00,76.0,69.0,29.82,NNW,337,6.0,7.0,79,0.00,,,0.56,TxWx,2013-05-22 16:18:00,
2013-05-22 12:24:00,76.0,69.0,29.82,NNW,337,10.0,10.0,79,0.00,,,0.56,TxWx,2013-05-22 16:24:00,
2013-05-22 12:29:00,76.0,69.0,29.82,WNW,292,3.0,3.0,80,0.00,,,0.56,TxWx,2013-05-22 16:29:00,
2013-05-22 12:35:00,77.0,70.0,29.82,WNW,292,3.0,4.0,80,0.00,,,0.56,TxWx,2013-05-22 16:35:00,
2013-05-22 12:40:00,78.0,71.0,29.81,NNW,337,7.0,8.0,80,0.00,,,0.56,TxWx,2013-05-22 16:40:00,
2013-05-22 12:45:00,78.0,71.0,29.82,SW,225,4.0,5.0,79,0.00,,,0.56,TxWx,2013-05-22 16:45:00,
2013-05-22 12:50:00,79.0,71.0,29.82,NNW,337,6.0,7.0,78,0.00,,,0.56,TxWx,2013-05-22 16:50:00,
2013-05-22 12:56:00,80.0,72.0,29.81,NW,315,3.0,5.0,77,0.00,,,0.56,TxWx,2013-05-22 16:56:00,
2013-05-22 13:01:00,80.0,72.0,29.81,NW,315,7.0,7.0,76,0.00,,,0.56,TxWx,2013-05-22 17:01:00,
2013-05-22 13:06:00,79.0,70.0,29.81,ENE,67,3.0,3.0,75,0.00,,,0.56,TxWx,2013-05-22 17:06:00,
2013-05-22 13:11:00,80.0,71.0,29.80,WNW,292,10.0,10.0,75,0.00,,,0.56,TxWx,2013-05-22 17:11:00,
2013-05-22 13:16:00,80.0,71.0,29.80,WNW,292,4.0,5.0,75,0.00,,,0.56,TxWx,2013-05-22 17:16:00,
2013-05-22 13:22:00,80.0,71.0,29.80,WNW,292,5.0,5.0,74,0.00,,,0.56,TxWx,2013-05-22 17:22:00,
2013-05-22 13:27:00,79.0,70.0,29.80,NW,315,3.0,4.0,74,0.00,,,0.56,TxWx,2013-05-22 17:27:00,
2013-05-22 13:32:00,79.0,70.0,29.79,WNW,292,7.0,7.0,74,0.00,,,0.56,TxWx,2013-05-22 17:32:00,
2013-05-22 13:38:00,79.0,70.0,29.79,NW,315,3.0,3.0,75,0.00,,,0.56,TxWx,2013-05-22 17:38:00,
2013-05-22 13:43:00,79.0,70.0,29.79,WNW,292,5.0,6.0,75,0.00,,,0.56,TxWx,2013-05-22 17:43:00,
2013-05-22 13:48:00,79.0,71.0,29.79,WNW,292,5.0,6.0,76,0.00,,,0.56,TxWx,2013-05-22 17:48:00,
2013-05-22 13:53:00,78.0,70.0,29.79,North,0,3.0,4.0,76,0.00,,,0.56,TxWx,2013-05-22 17:53:00,
2013-05-22 13:58:00,79.0,71.0,29.79,NW,315,5.0,5.0,76,0.00,,,0.56,TxWx,2013-05-22 17:58:00,
2013-05-22 14:04:00,79.0,71.0,29.79,NW,315,5.0,5.0,77,0.00,,,0.56,TxWx,2013-05-22 18:04:00,
2013-05-22 14:09:00,79.0,71.0,29.79,WNW,292,7.0,7.0,77,0.00,,,0.56,TxWx,2013-05-22 18:09:00,
2013-05-22 14:14:00,79.0,71.0,29.79,NW,315,3.0,3.0,77,0.00,,,0.56,TxWx,2013-05-22 18:14:00,
2013-05-22 14:19:00,79.0,71.0,29.79,NW,315,3.0,3.0,77,0.00,,,0.56,TxWx,2013-05-22 18:19:00,
2013-05-22 14:24:00,79.0,71.0,29.80,NW,315,3.0,4.0,77,0.00,,,0.56,TxWx,2013-05-22 18:24:00,
2013-05-22 14:30:00,79.0,71.0,29.80,WNW,292,3.0,3.0,78,0.00,,,0.56,TxWx,2013-05-22 18:30:00,
2013-05-22 14:35:00,79.0,71.0,29.79,WNW,292,2.0,3.0,78,0.00,,,0.56,TxWx,2013-05-22 18:35:00,
2013-05-22 14:40:00,78.0,70.0,29.78,WNW,292,10.0,10.0,78,0.00,,,0.56,TxWx,2013-05-22 18:40:00,
2013-05-22 14:46:00,78.0,71.0,29.77,NW,315,6.0,8.0,78,0.00,,,0.56,TxWx,2013-05-22 18:46:00,
2013-05-22 14:51:00,78.0,71.0,29.78,NNW,337,5.0,5.0,79,0.00,,,0.56,TxWx,2013-05-22 18:51:00,
2013-05-22 14:56:00,78.0,71.0,29.79,NNW,337,4.0,4.0,79,0.00,,,0.56,TxWx,2013-05-22 18:56:00,
2013-05-22 15:01:00,78.0,71.0,29.78,NW,315,3.0,3.0,80,0.00,,,0.56,TxWx,2013-05-22 19:01:00,
2013-05-22 15:02:00,75.0,71.0,29.77,West,270,3.0,3.0,87,0.00,,,0.00,TxWx,2013-05-22 19:02:00,
2013-05-22 15:03:00,75.0,71.0,29.77,North,0,3.0,4.0,87,0.00,,,0.00,TxWx,2013-05-22 19:03:00,
2013-05-22 15:04:00,75.0,71.0,29.77,NW,315,5.0,7.0,87,0.00,,,0.00,TxWx,2013-05-22 19:04:00,
2013-05-22 15:05:00,75.0,71.0,29.77,WNW,292,10.0,10.0,87,0.00,,,0.00,TxWx,2013-05-22 19:05:00,
2013-05-22 15:06:00,77.0,70.0,29.78,NNW,337,4.0,4.0,80,0.00,,,0.56,TxWx,2013-05-22 19:06:00,
2013-05-22 15:07:00,76.0,72.0,29.77,NNW,337,3.0,4.0,87,0.00,,,0.00,TxWx,2013-05-22 19:07:00,
2013-05-22 15:08:00,76.0,72.0,29.76,WNW,292,5.0,5.0,87,0.00,,,0.00,TxWx,2013-05-22 19:08:00,
2013-05-22 15:09:00,75.0,71.0,29.77,NNW,337,5.0,6.0,87,0.00,,,0.00,TxWx,2013-05-22 19:09:00,
2013-05-22 15:10:00,76.0,72.0,29.77,NNW,337,3.0,3.0,87,0.00,,,0.00,TxWx,2013-05-22 19:10:00,
2013-05-22 15:11:00,76.0,72.0,29.76,NNW,337,6.0,7.0,87,0.00,,,0.00,TxWx,2013-05-22 19:11:00,
2013-05-22 15:12:00,77.0,70.0,29.79,NNW,337,5.0,5.0,80,0.00,,,0.56,TxWx,2013-05-22 19:12:00,
2013-05-22 15:13:00,76.0,72.0,29.77,NW,315,3.0,4.0,87,0.00,,,0.00,TxWx,2013-05-22 19:13:00,
2013-05-22 15:14:00,76.0,72.0,29.77,NW,315,4.0,4.0,87,0.00,,,0.00,TxWx,2013-05-22 19:14:00,
2013-05-22 15:15:00,75.0,71.0,29.77,South,180,2.0,3.0,87,0.00,,,0.00,TxWx,2013-05-22 19:15:00,
2013-05-22 15:16:00,75.0,71.0,29.77,WNW,292,4.0,6.0,87,0.00,,,0.00,TxWx,2013-05-22 19:16:00,
2013-05-22 15:17:00,78.0,71.0,29.79,NNW,337,8.0,8.0,81,0.00,,,0.56,TxWx,2013-05-22 19:17:00,
2013-05-22 15:18:00,75.0,71.0,29.76,North,0,3.0,6.0,87,0.00,,,0.00,TxWx,2013-05-22 19:18:00,
2013-05-22 15:19:00,75.0,71.0,29.76,NNE,22,4.0,4.0,87,0.00,,,0.00,TxWx,2013-05-22 19:19:00,
2013-05-22 15:20:00,75.0,71.0,29.76,WNW,292,5.0,5.0,87,0.00,,,0.00,TxWx,2013-05-22 19:20:00,
2013-05-22 15:21:00,75.0,71.0,29.77,NE,45,4.0,6.0,87,0.00,,,0.00,TxWx,2013-05-22 19:21:00,
2013-05-22 15:22:00,78.0,71.0,29.78,SW,225,1.0,2.0,81,0.00,,,0.56,TxWx,2013-05-22 19:22:00,
2013-05-22 15:23:00,76.0,72.0,29.77,WNW,292,5.0,6.0,87,0.00,,,0.00,TxWx,2013-05-22 19:23:00,
2013-05-22 15:24:00,76.0,72.0,29.77,NNW,337,3.0,3.0,87,0.00,,,0.00,TxWx,2013-05-22 19:24:00,
2013-05-22 15:25:00,76.0,72.0,29.77,WNW,292,3.0,3.0,87,0.00,,,0.00,TxWx,2013-05-22 19:25:00,
2013-05-22 15:26:00,76.0,72.0,29.77,WSW,247,2.0,3.0,87,0.00,,,0.00,TxWx,2013-05-22 19:26:00,
2013-05-22 15:27:00,76.0,72.0,29.77,NNE,22,3.0,4.0,87,0.00,,,0.00,TxWx,2013-05-22 19:27:00,
2013-05-22 15:28:00,78.0,71.0,29.79,NW,315,3.0,4.0,81,0.00,,,0.56,TxWx,2013-05-22 19:28:00,
2013-05-22 15:29:00,76.0,72.0,29.77,NW,315,4.0,4.0,87,0.00,,,0.00,TxWx,2013-05-22 19:29:00,
2013-05-22 15:30:00,76.0,72.0,29.77,NNW,337,3.0,3.0,87,0.00,,,0.00,TxWx,2013-05-22 19:30:00,
2013-05-22 15:31:00,76.0,72.0,29.77,WNW,292,3.0,3.0,87,0.00,,,0.00,TxWx,2013-05-22 19:31:00,
2013-05-22 15:32:00,75.0,71.0,29.77,WNW,292,3.0,4.0,87,0.00,,,0.00,TxWx,2013-05-22 19:32:00,
2013-05-22 15:33:00,77.0,71.0,29.79,NNW,337,3.0,3.0,81,0.00,,,0.56,TxWx,2013-05-22 19:33:00,
2013-05-22 15:34:00,75.0,71.0,29.77,NNW,337,4.0,6.0,87,0.00,,,0.00,TxWx,2013-05-22 19:34:00,
2013-05-22 15:35:00,75.0,71.0,29.77,NNW,337,4.0,5.0,87,0.00,,,0.00,TxWx,2013-05-22 19:35:00,
2013-05-22 15:36:00,75.0,71.0,29.77,NW,315,5.0,6.0,87,0.00,,,0.00,TxWx,2013-05-22 19:36:00,
2013-05-22 15:37:00,75.0,71.0,29.77,NNW,337,5.0,6.0,87,0.00,,,0.00,TxWx,2013-05-22 19:37:00,
2013-05-22 15:38:00,75.0,71.0,29.77,NNW,337,1.0,2.0,87,0.00,,,0.00,TxWx,2013-05-22 19:38:00,
2013-05-22 15:39:00,77.0,71.0,29.80,NW,315,3.0,5.0,81,0.00,,,0.56,TxWx,2013-05-22 19:39:00,
2013-05-22 15:40:00,75.0,71.0,29.77,West,270,5.0,5.0,87,0.00,,,0.00,TxWx,2013-05-22 19:40:00,
2013-05-22 15:41:00,75.0,71.0,29.77,NW,315,4.0,5.0,87,0.00,,,0.00,TxWx,2013-05-22 19:41:00,
2013-05-22 15:42:00,75.0,71.0,29.77,North,0,2.0,3.0,87,0.00,,,0.00,TxWx,2013-05-22 19:42:00,
2013-05-22 15:43:00,75.0,71.0,29.77,NNE,22,1.0,1.0,87,0.00,,,0.00,TxWx,2013-05-22 19:43:00,
2013-05-22 15:44:00,77.0,71.0,29.79,NW,315,3.0,3.0,81,0.00,,,0.56,TxWx,2013-05-22 19:44:00,
2013-05-22 15:45:00,75.0,71.0,29.77,WSW,247,5.0,6.0,87,0.00,,,0.00,TxWx,2013-05-22 19:45:00,
2013-05-22 15:46:00,75.0,71.0,29.77,WNW,292,3.0,3.0,87,0.00,,,0.00,TxWx,2013-05-22 19:46:00,
2013-05-22 15:47:00,75.0,71.0,29.77,WNW,292,4.0,5.0,87,0.00,,,0.00,TxWx,2013-05-22 19:47:00,
2013-05-22 15:48:00,75.0,71.0,29.77,North,0,2.0,3.0,87,0.00,,,0.00,TxWx,2013-05-22 19:48:00,
2013-05-22 15:49:00,78.0,71.0,29.79,NW,315,3.0,4.0,81,0.00,,,0.56,TxWx,2013-05-22 19:49:00,
2013-05-22 15:50:00,75.0,71.0,29.77,West,270,2.0,2.0,87,0.00,,,0.00,TxWx,2013-05-22 19:50:00,
2013-05-22 15:51:00,75.0,71.0,29.77,NW,315,2.0,3.0,87,0.00,,,0.00,TxWx,2013-05-22 19:51:00,
2013-05-22 15:52:00,75.0,71.0,29.77,NNW,337,3.0,3.0,87,0.00,,,0.00,TxWx,2013-05-22 19:52:00,
2013-05-22 15:53:00,75.0,71.0,29.76,NW,315,3.0,3.0,87,0.00,,,0.00,TxWx,2013-05-22 19:53:00,
2013-05-22 15:55:00,78.0,72.0,29.79,ENE,67,2.0,2.0,81,0.00,,,0.56,TxWx,2013-05-22 19:55:00,
2013-05-22 16:00:00,78.0,72.0,29.79,NNW,337,3.0,4.0,81,0.00,,,0.56,TxWx,2013-05-22 20:00:00,
2013-05-22 16:05:00,79.0,72.0,29.79,North,0,4.0,6.0,81,0.00,,,0.56,TxWx,2013-05-22 20:05:00,
2013-05-22 16:10:00,79.0,72.0,29.78,WNW,292,3.0,3.0,80,0.00,,,0.56,TxWx,2013-05-22 20:10:00,
2013-05-22 16:15:00,79.0,72.0,29.78,WNW,292,7.0,8.0,80,0.00,,,0.56,TxWx,2013-05-22 20:15:00,
2013-05-22 16:21:00,79.0,72.0,29.78,NW,315,3.0,5.0,79,0.00,,,0.56,TxWx,2013-05-22 20:21:00,
2013-05-22 16:26:00,79.0,72.0,29.77,NNE,22,1.0,2.0,79,0.00,,,0.56,TxWx,2013-05-22 20:26:00,
2013-05-22 16:31:00,80.0,72.0,29.78,NNW,337,3.0,3.0,78,0.00,,,0.56,TxWx,2013-05-22 20:31:00,
2013-05-22 16:36:00,80.0,72.0,29.77,NW,315,3.0,5.0,78,0.00,,,0.56,TxWx,2013-05-22 20:36:00,
2013-05-22 16:42:00,81.0,73.0,29.76,WNW,292,3.0,4.0,77,0.00,,,0.56,TxWx,2013-05-22 20:42:00,
2013-05-22 16:47:00,81.0,73.0,29.77,NW,315,3.0,4.0,77,0.00,,,0.56,TxWx,2013-05-22 20:47:00,
2013-05-22 16:52:00,81.0,73.0,29.76,NW,315,8.0,8.0,76,0.00,,,0.56,TxWx,2013-05-22 20:52:00,
2013-05-22 16:57:00,81.0,72.0,29.77,NW,315,5.0,5.0,75,0.00,,,0.56,TxWx,2013-05-22 20:57:00,
2013-05-22 17:03:00,81.0,72.0,29.76,WNW,292,6.0,8.0,74,0.00,,,0.56,TxWx,2013-05-22 21:03:00,
2013-05-22 17:08:00,81.0,72.0,29.76,North,0,5.0,6.0,74,0.00,,,0.56,TxWx,2013-05-22 21:08:00,
2013-05-22 17:13:00,82.0,73.0,29.76,NW,315,6.0,6.0,74,0.00,,,0.56,TxWx,2013-05-22 21:13:00,
2013-05-22 17:18:00,81.0,71.0,29.76,NW,315,3.0,3.0,73,0.00,,,0.56,TxWx,2013-05-22 21:18:00,
2013-05-22 17:24:00,82.0,72.0,29.76,NW,315,5.0,5.0,73,0.00,,,0.56,TxWx,2013-05-22 21:24:00,
2013-05-22 17:29:00,82.0,72.0,29.75,East,90,3.0,4.0,73,0.00,,,0.56,TxWx,2013-05-22 21:29:00,
2013-05-22 17:34:00,82.0,72.0,29.75,North,0,3.0,3.0,73,0.00,,,0.56,TxWx,2013-05-22 21:34:00,
2013-05-22 17:40:00,82.0,72.0,29.75,NNW,337,5.0,5.0,73,0.00,,,0.56,TxWx,2013-05-22 21:40:00,
2013-05-22 17:45:00,82.0,72.0,29.75,North,0,6.0,6.0,72,0.00,,,0.56,TxWx,2013-05-22 21:45:00,
2013-05-22 17:50:00,82.0,72.0,29.75,NW,315,5.0,6.0,73,0.00,,,0.56,TxWx,2013-05-22 21:50:00,
2013-05-22 17:56:00,82.0,72.0,29.75,NW,315,3.0,3.0,73,0.00,,,0.56,TxWx,2013-05-22 21:56:00,
2013-05-22 18:01:00,82.0,72.0,29.74,NNE,22,3.0,3.0,73,0.00,,,0.56,TxWx,2013-05-22 22:01:00,
2013-05-22 18:06:00,82.0,73.0,29.75,WSW,247,5.0,5.0,74,0.00,,,0.56,TxWx,2013-05-22 22:06:00,
2013-05-22 18:11:00,82.0,72.0,29.74,NW,315,3.0,3.0,73,0.00,,,0.56,TxWx,2013-05-22 22:11:00,
2013-05-22 18:17:00,82.0,72.0,29.75,WNW,292,5.0,5.0,73,0.00,,,0.56,TxWx,2013-05-22 22:17:00,
2013-05-22 18:22:00,82.0,72.0,29.75,NNE,22,3.0,4.0,73,0.00,,,0.56,TxWx,2013-05-22 22:22:00,
2013-05-22 18:27:00,82.0,72.0,29.75,WNW,292,6.0,8.0,73,0.00,,,0.56,TxWx,2013-05-22 22:27:00,
2013-05-22 18:32:00,81.0,71.0,29.75,WNW,292,4.0,5.0,73,0.00,,,0.56,TxWx,2013-05-22 22:32:00,
2013-05-22 18:37:00,81.0,72.0,29.75,NW,315,3.0,5.0,74,0.00,,,0.56,TxWx,2013-05-22 22:37:00,
2013-05-22 18:42:00,81.0,72.0,29.75,NNW,337,3.0,4.0,74,0.00,,,0.56,TxWx,2013-05-22 22:42:00,
2013-05-22 18:47:00,81.0,72.0,29.75,WNW,292,3.0,4.0,74,0.00,,,0.56,TxWx,2013-05-22 22:47:00,
2013-05-22 18:53:00,81.0,72.0,29.76,NW,315,3.0,4.0,75,0.00,,,0.56,TxWx,2013-05-22 22:53:00,
2013-05-22 18:58:00,81.0,72.0,29.76,NNW,337,2.0,4.0,75,0.00,,,0.56,TxWx,2013-05-22 22:58:00,
2013-05-22 19:04:00,81.0,72.0,29.76,NW,315,3.0,3.0,75,0.00,,,0.56,TxWx,2013-05-22 23:04:00,
2013-05-22 19:09:00,81.0,72.0,29.76,NNW,337,3.0,3.0,76,0.00,,,0.56,TxWx,2013-05-22 23:09:00,
2013-05-22 19:14:00,81.0,72.0,29.76,NNW,337,2.0,2.0,76,0.00,,,0.56,TxWx,2013-05-22 23:14:00,
2013-05-22 19:19:00,81.0,73.0,29.76,WNW,292,2.0,3.0,76,0.00,,,0.56,TxWx,2013-05-22 23:19:00,
2013-05-22 19:25:00,81.0,73.0,29.76,NW,315,2.0,2.0,76,0.00,,,0.56,TxWx,2013-05-22 23:25:00,
2013-05-22 19:30:00,81.0,73.0,29.76,NNW,337,2.0,2.0,77,0.00,,,0.56,TxWx,2013-05-22 23:30:00,
2013-05-22 19:35:00,80.0,72.0,29.76,NW,315,1.0,2.0,77,0.00,,,0.56,TxWx,2013-05-22 23:35:00,
2013-05-22 19:40:00,80.0,72.0,29.76,West,270,2.0,3.0,77,0.00,,,0.56,TxWx,2013-05-22 23:40:00,
2013-05-22 19:46:00,80.0,72.0,29.75,WSW,247,2.0,2.0,78,0.00,,,0.56,TxWx,2013-05-22 23:46:00,
2013-05-22 19:51:00,80.0,72.0,29.75,West,270,1.0,2.0,78,0.00,,,0.56,TxWx,2013-05-22 23:51:00,
2013-05-22 19:56:00,80.0,72.0,29.76,West,270,1.0,2.0,78,0.00,,,0.56,TxWx,2013-05-22 23:56:00,
2013-05-22 20:02:00,79.0,72.0,29.76,NW,315,1.0,1.0,79,0.00,,,0.56,TxWx,2013-05-23 00:02:00,
2013-05-22 20:07:00,79.0,72.0,29.76,NW,315,3.0,3.0,79,0.00,,,0.56,TxWx,2013-05-23 00:07:00,
2013-05-22 20:12:00,79.0,72.0,29.76,WNW,292,1.0,1.0,79,0.00,,,0.56,TxWx,2013-05-23 00:12:00,
2013-05-22 20:17:00,78.0,71.0,29.76,NW,315,1.0,1.0,80,0.00,,,0.56,TxWx,2013-05-23 00:17:00,
2013-05-22 20:22:00,78.0,71.0,29.76,NW,315,3.0,5.0,80,0.00,,,0.56,TxWx,2013-05-23 00:22:00,
2013-05-22 20:28:00,78.0,71.0,29.76,NW,315,1.0,2.0,80,0.00,,,0.56,TxWx,2013-05-23 00:28:00,
2013-05-22 20:33:00,78.0,71.0,29.75,NW,315,3.0,3.0,81,0.00,,,0.56,TxWx,2013-05-23 00:33:00,
2013-05-22 20:38:00,78.0,72.0,29.76,NNW,337,1.0,1.0,81,0.00,,,0.56,TxWx,2013-05-23 00:38:00,
2013-05-22 20:43:00,77.0,71.0,29.76,NNE,22,2.0,2.0,82,0.00,,,0.56,TxWx,2013-05-23 00:43:00,
2013-05-22 20:49:00,77.0,71.0,29.76,WNW,292,2.0,2.0,82,0.00,,,0.56,TxWx,2013-05-23 00:49:00,
2013-05-22 20:54:00,77.0,71.0,29.76,NW,315,3.0,3.0,82,0.00,,,0.56,TxWx,2013-05-23 00:54:00,
2013-05-22 20:59:00,77.0,71.0,29.76,North,0,2.0,3.0,83,0.00,,,0.56,TxWx,2013-05-23 00:59:00,
2013-05-22 21:05:00,77.0,71.0,29.76,NW,315,3.0,4.0,83,0.00,,,0.56,TxWx,2013-05-23 01:05:00,
2013-05-22 21:10:00,77.0,71.0,29.77,NW,315,3.0,3.0,83,0.00,,,0.56,TxWx,2013-05-23 01:10:00,
2013-05-22 21:15:00,77.0,72.0,29.77,NNW,337,3.0,3.0,84,0.00,,,0.56,TxWx,2013-05-23 01:15:00,
2013-05-22 21:20:00,77.0,72.0,29.77,NNW,337,2.0,2.0,84,0.00,,,0.56,TxWx,2013-05-23 01:20:00,
2013-05-22 21:25:00,77.0,72.0,29.78,NNW,337,3.0,3.0,84,0.00,,,0.56,TxWx,2013-05-23 01:25:00,
2013-05-22 21:30:00,77.0,72.0,29.78,NNW,337,3.0,3.0,85,0.00,,,0.56,TxWx,2013-05-23 01:30:00,
2013-05-22 21:36:00,77.0,72.0,29.78,WNW,292,5.0,6.0,85,0.00,,,0.56,TxWx,2013-05-23 01:36:00,
2013-05-22 21:41:00,77.0,72.0,29.77,WNW,292,2.0,2.0,85,0.00,,,0.56,TxWx,2013-05-23 01:41:00,
2013-05-22 21:46:00,77.0,72.0,29.77,NNW,337,3.0,4.0,85,0.00,,,0.56,TxWx,2013-05-23 01:46:00,
2013-05-22 21:51:00,77.0,72.0,29.78,NNW,337,3.0,3.0,85,0.00,,,0.56,TxWx,2013-05-23 01:51:00,
2013-05-22 21:56:00,77.0,72.0,29.78,NW,315,1.0,2.0,86,0.00,,,0.56,TxWx,2013-05-23 01:56:00,
2013-05-22 22:01:00,77.0,72.0,29.77,NW,315,1.0,1.0,86,0.00,,,0.56,TxWx,2013-05-23 02:01:00,
2013-05-22 22:07:00,77.0,72.0,29.77,NNW,337,5.0,6.0,86,0.00,,,0.56,TxWx,2013-05-23 02:07:00,
2013-05-22 22:12:00,77.0,72.0,29.77,NNW,337,3.0,3.0,86,0.00,,,0.56,TxWx,2013-05-23 02:12:00,
2013-05-22 22:17:00,77.0,72.0,29.77,NW,315,3.0,3.0,86,0.00,,,0.56,TxWx,2013-05-23 02:17:00,
2013-05-22 22:22:00,77.0,72.0,29.77,NW,315,4.0,4.0,86,0.00,,,0.56,TxWx,2013-05-23 02:22:00,
2013-05-22 22:28:00,77.0,72.0,29.78,WNW,292,3.0,4.0,86,0.00,,,0.56,TxWx,2013-05-23 02:28:00,
2013-05-22 22:33:00,77.0,72.0,29.78,NW,315,8.0,8.0,85,0.00,,,0.56,TxWx,2013-05-23 02:33:00,
2013-05-22 22:38:00,77.0,72.0,29.78,NNW,337,5.0,5.0,85,0.00,,,0.56,TxWx,2013-05-23 02:38:00,
2013-05-22 22:43:00,77.0,72.0,29.78,NNW,337,4.0,4.0,85,0.00,,,0.56,TxWx,2013-05-23 02:43:00,
2013-05-22 22:48:00,76.0,71.0,29.78,NW,315,4.0,5.0,85,0.00,,,0.56,TxWx,2013-05-23 02:48:00,
2013-05-22 22:53:00,76.0,71.0,29.78,NNW,337,5.0,6.0,85,0.00,,,0.56,TxWx,2013-05-23 02:53:00,
2013-05-22 22:59:00,76.0,71.0,29.78,NNW,337,4.0,5.0,85,0.00,,,0.56,TxWx,2013-05-23 02:59:00,
2013-05-22 23:04:00,76.0,71.0,29.77,NW,315,3.0,3.0,85,0.00,,,0.56,TxWx,2013-05-23 03:04:00,
2013-05-22 23:09:00,76.0,71.0,29.77,WNW,292,3.0,4.0,85,0.00,,,0.56,TxWx,2013-05-23 03:09:00,
2013-05-22 23:14:00,76.0,71.0,29.76,North,0,5.0,5.0,86,0.00,,,0.56,TxWx,2013-05-23 03:14:00,
2013-05-22 23:19:00,76.0,71.0,29.76,NNW,337,3.0,6.0,86,0.00,,,0.56,TxWx,2013-05-23 03:19:00,
2013-05-22 23:25:00,76.0,71.0,29.77,NNW,337,4.0,5.0,86,0.00,,,0.56,TxWx,2013-05-23 03:25:00,
2013-05-22 23:30:00,76.0,71.0,29.76,North,0,4.0,6.0,86,0.00,,,0.56,TxWx,2013-05-23 03:30:00,
2013-05-22 23:35:00,76.0,71.0,29.76,NW,315,2.0,3.0,86,0.00,,,0.56,TxWx,2013-05-23 03:35:00,
2013-05-22 23:40:00,76.0,71.0,29.76,NNW,337,5.0,5.0,86,0.00,,,0.56,TxWx,2013-05-23 03:40:00,
2013-05-22 23:46:00,76.0,71.0,29.77,WNW,292,3.0,4.0,86,0.00,,,0.56,TxWx,2013-05-23 03:46:00,
2013-05-22 23:51:00,76.0,71.0,29.77,NNW,337,1.0,1.0,86,0.00,,,0.56,TxWx,2013-05-23 03:51:00,
2013-05-22 23:56:00,75.0,71.0,29.77,SW,225,2.0,2.0,86,0.00,,,0.56,TxWx,2013-05-23 03:56:00,